FW6146 Weather Reports


Display with metric or nautical units.
time (UTC)temp
F
wind
direction
speed
MPH
gust
MPH
rain 1hr
in
rain 24hr
in
rain mn
in
humidity
%
barometer
mb
20260509011950 50 0.0 1.0 0.00 0.00 0.00 57 1011.3
20260509011009 51 307 1.0 1.0 0.00 0.00 0.00 57 1011.3
20260509005954 51 309 1.0 2.0 0.00 0.00 0.00 56 1011.0
20260509005012 51 346 0.0 1.0 0.00 0.00 0.00 55 1010.9
20260509003957 52 0.0 0.0 0.00 0.00 0.00 54 1010.7
20260509003036 52 0.0 0.0 0.00 0.00 0.00 53 1010.3
20260509002001 52 314 0.0 1.0 0.00 0.00 0.00 52 1010.2
20260509001020 53 0.0 0.0 0.00 0.00 0.00 51 1009.9
20260509000005 53 0.0 1.0 0.00 0.00 0.00 50 1009.6
20260508235023 54 314 1.0 1.0 0.00 0.00 0.00 49 1009.7
20260508234030 54 314 1.0 1.0 0.00 0.00 0.00 49 1009.4
20260508232955 55 310 1.0 2.0 0.00 0.00 0.00 46 1009.2
20260508232013 55 307 1.0 3.0 0.00 0.00 0.00 45 1009.3
20260508230959 56 333 2.0 3.0 0.00 0.00 0.00 45 1009.2
20260508230018 56 336 1.0 2.0 0.00 0.00 0.00 45 1009.0
20260508225002 57 299 2.0 3.0 0.00 0.00 0.00 45 1009.1
20260508224020 57 337 1.0 5.0 0.00 0.00 0.00 43 1009.0
20260508223005 57 323 1.0 3.0 0.00 0.00 0.00 45 1009.0
20260508222023 57 329 3.0 5.0 0.00 0.00 0.00 45 1008.9
20260508221028 58 340 1.0 3.0 0.00 0.00 0.00 44 1009.0
20260508220027 58 355 2.0 5.0 0.00 0.00 0.00 45 1009.0
20260508215032 59 313 3.0 5.0 0.00 0.00 0.00 44 1008.8
20260508214029 58 308 3.0 5.0 0.00 0.00 0.00 43 1008.6
20260508213013 59 317 1.0 3.0 0.00 0.00 0.00 44 1008.8
20260508211959 59 349 1.0 3.0 0.00 0.00 0.00 44 1008.5
20260508211016 58 274 3.0 5.0 0.00 0.00 0.00 45 1008.6
20260508210001 58 301 2.0 3.0 0.00 0.00 0.00 43 1008.7
20260508205019 59 305 4.0 6.0 0.00 0.00 0.00 43 1008.4
20260508204025 59 359 2.0 5.0 0.00 0.00 0.00 41 1008.4
20260508203023 59 301 2.0 5.0 0.00 0.00 0.00 41 1008.3
20260508201902 58 310 2.0 3.0 0.00 0.00 0.00 43 1008.2
20260508200921 57 323 3.0 5.0 0.00 0.00 0.00 43 1008.3
20260508195906 58 310 1.0 2.0 0.00 0.00 0.00 41 1008.2
20260508194924 59 295 2.0 5.0 0.00 0.00 0.00 41 1008.2
20260508193909 59 342 1.0 3.0 0.00 0.00 0.00 40 1007.9
20260508192928 60 311 2.0 6.0 0.00 0.00 0.00 39 1007.8
20260508191914 60 310 2.0 3.0 0.00 0.00 0.00 37 1007.8
20260508190953 60 298 3.0 6.0 0.00 0.00 0.00 36 1007.9
20260508185939 61 306 4.0 7.0 0.00 0.00 0.00 36 1007.9
20260508184925 60 322 1.0 6.0 0.00 0.00 0.00 37 1007.7
20260508183923 60 330 3.0 5.0 0.00 0.00 0.00 36 1007.9
20260508182909 61 305 1.0 3.0 0.00 0.00 0.00 36 1007.7
20260508181928 60 322 2.0 5.0 0.00 0.00 0.00 37 1007.9
20260508180914 60 297 3.0 6.0 0.00 0.00 0.00 37 1007.8
20260508175933 61 298 2.0 5.0 0.00 0.00 0.00 36 1007.8
20260508175058 61 300 2.0 3.0 0.00 0.00 0.00 38 1007.8
20260508173937 61 300 2.0 3.0 0.00 0.00 0.00 37 1007.8
20260508172922 61 288 3.0 7.0 0.00 0.00 0.00 37 1007.9
20260508172001 60 306 3.0 8.0 0.00 0.00 0.00 40 1008.0
20260508170926 61 287 3.0 6.0 0.00 0.00 0.00 37 1007.9
20260508165912 59 323 3.0 6.0 0.00 0.00 0.00 40 1008.0
20260508164931 61 308 4.0 7.0 0.00 0.00 0.00 38 1008.0
20260508163918 60 287 4.0 6.0 0.00 0.00 0.00 39 1008.0
20260508162936 60 269 1.0 5.0 0.00 0.00 0.00 39 1007.9
20260508161921 60 313 4.0 6.0 0.00 0.00 0.00 40 1008.2
20260508160940 59 299 3.0 6.0 0.00 0.00 0.00 39 1008.2
20260508155926 58 281 3.0 5.0 0.00 0.00 0.00 40 1008.3
20260508154912 59 270 3.0 6.0 0.00 0.00 0.00 40 1008.4
20260508153951 58 268 3.0 5.0 0.00 0.00 0.00 41 1008.5
20260508152915 58 312 2.0 3.0 0.00 0.00 0.00 42 1008.7
20260508151932 58 288 4.0 7.0 0.00 0.00 0.00 41 1008.6
20260508150917 57 249 4.0 7.0 0.00 0.00 0.00 40 1008.8
20260508145937 58 2 2.0 6.0 0.00 0.00 0.00 39 1008.7
20260508144923 57 296 3.0 5.0 0.00 0.00 0.00 39 1009.0
20260508143942 56 289 2.0 3.0 0.00 0.00 0.00 40 1008.8
20260508142927 56 304 2.0 5.0 0.00 0.00 0.00 41 1009.0
20260508141946 56 306 1.0 2.0 0.00 0.00 0.00 41 1008.8
20260508140931 56 308 3.0 6.0 0.00 0.00 0.00 40 1009.0
20260508135950 55 0.0 5.0 0.00 0.00 0.00 41 1009.0
20260508134955 54 294 2.0 3.0 0.00 0.00 0.00 44 1009.2
20260508133921 54 308 1.0 5.0 0.00 0.00 0.00 44 1009.4
20260508132941 54 314 3.0 6.0 0.00 0.00 0.00 45 1009.4
20260508131926 53 314 1.0 3.0 0.00 0.00 0.00 48 1009.3
20260508130944 53 14 1.0 2.0 0.00 0.01 0.00 46 1009.3
20260508125927 52 336 1.0 3.0 0.00 0.01 0.00 48 1009.6
20260508124945 52 320 1.0 2.0 0.00 0.01 0.00 48 1009.5
20260508123930 51 0.0 2.0 0.00 0.01 0.00 51 1009.6
20260508122948 50 347 1.0 2.0 0.00 0.02 0.00 53 1009.5
20260508121932 50 336 0.0 1.0 0.00 0.02 0.00 56 1009.4
20260508121031 49 0.0 1.0 0.00 0.03 0.00 56 1009.4
20260508115956 48 328 0.0 1.0 0.00 0.03 0.00 59 1009.7
20260508114942 47 0.0 0.0 0.00 0.04 0.00 63 1009.6
20260508113940 46 0.0 0.0 0.00 0.04 0.00 66 1009.6
20260508112945 45 0.0 0.0 0.00 0.05 0.00 67 1009.6
20260508111943 44 340 1.0 2.0 0.00 0.06 0.00 68 1009.5
20260508110927 43 0.0 0.0 0.00 0.06 0.00 71 1009.2
20260508105943 42 0.0 1.0 0.00 0.07 0.00 72 1009.4
20260508104948 42 0.0 1.0 0.00 0.08 0.00 72 1009.2
20260508104007 42 0.0 0.0 0.00 0.08 0.00 72 1009.1
20260508102931 41 318 0.0 1.0 0.00 0.09 0.00 72 1009.0
20260508101947 42 0.0 0.0 0.00 0.10 0.00 77 1009.0
20260508100933 41 0.0 0.0 0.00 0.10 0.00 73 1009.0
20260508095950 41 0.0 0.0 0.00 0.11 0.00 76 1008.8
20260508094936 40 0.0 0.0 0.00 0.11 0.00 77 1008.8
20260508093953 40 0.0 0.0 0.00 0.12 0.00 76 1008.5
20260508092938 40 0.0 0.0 0.00 0.12 0.00 76 1008.6
20260508091956 40 0.0 0.0 0.00 0.13 0.00 78 1008.6
20260508091002 40 0.0 0.0 0.00 0.13 0.00 77 1008.5
20260508090001 40 0.0 0.0 0.00 0.14 0.00 77 1008.4
20260508084947 41 0.0 0.0 0.00 0.15 0.00 75 1008.6
20260508083931 41 0.0 0.0 0.00 0.16 0.00 75 1008.4
20260508082948 41 0.0 0.0 0.00 0.18 0.00 73 1008.4
20260508081933 41 0.0 0.0 0.00 0.19 0.00 71 1008.5
20260508080952 41 0.0 0.0 0.00 0.21 0.00 72 1007.9
20260508075937 41 0.0 0.0 0.00 0.22 0.00 71 1007.9
20260508075016 42 0.0 0.0 0.00 0.24 0.00 72 1007.6
20260508073942 42 0.0 0.0 0.00 0.26 0.00 73 1007.4
20260508073001 42 319 0.0 1.0 0.00 0.28 0.00 71 1007.2
20260508071946 43 0.0 0.0 0.00 0.28 0.00 70 1007.0
20260508071004 43 0.0 0.0 0.00 0.28 0.00 66 1006.8
20260508065946 43 0.0 0.0 0.00 0.28 0.00 64 1007.0
20260508065003 44 0.0 0.0 0.00 0.28 0.00 63 1007.0
20260508063948 45 0.0 0.0 0.00 0.28 0.00 64 1007.0
20260508063027 45 0.0 0.0 0.00 0.28 0.00 61 1006.9
20260508061952 46 0.0 0.0 0.00 0.28 0.00 61 1006.9
20260508060937 47 0.0 0.0 0.00 0.28 0.00 57 1006.9
20260508055956 47 0.0 0.0 0.00 0.28 0.00 55 1007.2
20260508054940 48 0.0 1.0 0.00 0.28 0.00 52 1007.0
20260508054000 49 0.0 2.0 0.00 0.28 0.00 52 1007.1
20260508053006 48 0.0 1.0 0.00 0.28 0.00 52 1007.0
20260508052023 48 332 1.0 1.0 0.00 0.28 0.00 52 1007.1
20260508050948 49 0.0 1.0 0.00 0.28 0.00 52 1007.1
20260508050006 49 311 1.0 3.0 0.00 0.28 0.00 50 1007.2
20260508044950 49 0.0 1.0 0.00 0.28 0.00 53 1007.1
20260508044009 49 0.0 1.0 0.00 0.28 0.00 53 1007.1
20260508042953 49 0.0 1.0 0.00 0.28 0.00 53 1007.1
20260508042011 49 333 0.0 1.0 0.00 0.28 0.00 54 1007.2
20260508040957 49 335 1.0 2.0 0.00 0.28 0.00 53 1007.2
20260508035942 49 0.0 0.0 0.00 0.29 0.29 53 1007.3
20260508035000 49 0.0 1.0 0.00 0.29 0.29 54 1007.2
20260508033945 49 330 0.0 2.0 0.00 0.29 0.29 54 1007.3
20260508033003 49 330 1.0 1.0 0.00 0.29 0.29 55 1007.2
20260508032027 49 330 0.0 1.0 0.00 0.29 0.29 57 1007.1
20260508031006 49 0.0 0.0 0.00 0.29 0.29 55 1007.3
20260508025951 49 0.0 0.0 0.00 0.29 0.29 54 1007.3
20260508025030 49 0.0 0.0 0.00 0.29 0.29 55 1007.3
20260508023955 50 0.0 0.0 0.00 0.29 0.29 51 1007.3
20260508023054 51 0.0 0.0 0.00 0.29 0.29 50 1007.3
20260508022000 51 0.0 0.0 0.00 0.29 0.29 51 1007.4
20260508021036 51 0.0 0.0 0.00 0.29 0.29 50 1007.5
20260508020001 52 0.0 0.0 0.00 0.29 0.29 49 1007.5
20260508015019 52 330 0.0 1.0 0.00 0.29 0.29 49 1007.5
20260508014004 52 330 0.0 1.0 0.00 0.29 0.29 48 1007.2
20260508013010 53 0.0 0.0 0.00 0.29 0.29 47 1007.2